Torna al catalogo

STARLINK-3551

AttivoComunicazioniVLEO
NORAD 51887·PAYLOAD·🇺🇸 United States

Lanciato Mar 3, 2022 da Cape Canaveral Space Force Station

Loading…

Prossimi Passaggi (prossime 24 ore)

TLE

AggiornatoSource: CelesTrak SupGP

Epoca: Sep 15, 2026, 02:16 UTC

1 51887C 22022AM  26258.09493056 -.00021124  00000+0 -62424-3 0  2586
2 51887  53.1582 212.6431 0001323  87.5468 104.4094 15.34394273    15

Traccia STARLINK-3551 in tempo reale con AllMySat

Download on the App Store